CZ-6A DEB, 61811

Orbit data source: Space-Track

CZ-6A DEB, 61811 is space debris in LEO originally from a launch on Tue, 06 Aug 2024 UTC launched from the Taiyaun Space Center, China (TSC). Debris objects in space refer to the collection of defunct objects orbiting the Earth. Examples of debris include non-operational satellites, rocket bodies, and fragments generated from explosions, collisions, or faulty payload assembly.

Loading next visibility...
Identifier
61811, 2024-140ACB
Orbit
LEO
Country
Flag of CNCN / PRC
Related business
Manufacturer
SAST
Mission
Spacecraft
Bus & Motor
Unknown
Mass
Unknown
Launch date (UTC)
2024-08-06 (1 year ago)
Launch vehicle
Unknown
Launch site
Taiyaun Space Center, China (TSC)
Object type
Payload
Rocket body
Debris
Shape & HBR
Unknown shape, 0.1 m
Radar Cross Section
Small (<0.1 m²)

Expand to show TLE details & history
Last TLE update: 2 days ago

TLE from 2 days ago
0 CZ-6A DEB
1 61811U 24140ACB 25349.83304352  .00002011  00000-0  10876-2 0  9997
2 61811  89.0437 298.9158 0102290  88.4184 272.8714 14.09570317 65413
Epoch: 2025-12-15T19:59Z
TLE epoch observation values (Epoch: 2025-12-15T19:59:34.960Z)
Latitude
-0.00002°
Longitude
-85.70581°
Altitude
860.927 km
Speed
7.423 km/s
True Right ascension
19h 55m 39s
True Declination
0° 00' 00"
Sunlit
Object was in daylight at epoch
Visualization orbit readout
Latitude
Unknown
Longitude
Unknown
Altitude
Unknown
Speed
Unknown
Apparent Right ascension
Unknown
Apparent Declination
Unknown
Sunlit
N/A
Visualization observer readout
Local Sidereal Time
12:55:09
Azimuth
Unknown
Elevation
Unknown
Doppler factor
Unknown
Orbital elements
Apogee altitude
931.824 km
Perigee altitude
783.791 km
Semi-major axis
7,235.945 km
Eccentricity
0.01023
Inclination
89.0437°
RAAN
298.9158°
Arg. of periapsis
88.4184°
True anomaly
271.70005°
Mean anomaly
272.8714°
Eccentric anomaly
272.28579°
Mean motion
3.52615 °/min
Orbital period
102.09 mins
BSTAR
0.0010876
Loading maneuver chart data...
Computing Atmospheric mass density...

Documentation

Showing up to 5 results
|